Overview Statistics Trail Chart Weather Telemetry Raw packets
 

This is the latest recevied weather packets stored in our database for station/object SP6YY-15. If no packets are shown the sender has not sent any weather packets the latest 10 day(s).

<< 7 8 9 10 11 12 13 >>
Time Temp. Humidity Pressure Rain* Wind** Luminosity Snow
1777389963 50° C 5% 1009.5 hPa - - - -
1777388446 52.78° C 7% 1009.6 hPa - - - -
1777388146 53.33° C 7% 1009.7 hPa - - - -
1777387546 53.33° C 7% 1009.6 hPa - - - -
1777386946 53.33° C 8% 1009.7 hPa - - - -
1777386346 53.33° C 8% 1009.7 hPa - - - -
1777385446 53.33° C 9% 1010.1 hPa - - - -
1777385147 53.33° C 9% 1009.9 hPa - - - -
1777384846 53.33° C 9% 1010.1 hPa - - - -
1777384546 52.78° C 9% 1010 hPa - - - -
1777384246 52.78° C 9% 1010 hPa - - - -
1777383645 52.22° C 10% 1010.1 hPa - - - -
1777383345 52.22° C 10% 1010.1 hPa - - - -
1777383044 52.22° C 10% 1010.3 hPa - - - -
1777382144 51.11° C 11% 1010.3 hPa - - - -
1777381844 50.56° C 11% 1010.4 hPa - - - -
1777381543 50° C 12% 1010.4 hPa - - - -
1777381243 49.44° C 12% 1010.5 hPa - - - -
1777380943 48.89° C 12% 1010.7 hPa - - - -
1777380343 47.78° C 13% 1010.5 hPa - - - -
1777380043 47.22° C 13% 1010.5 hPa - - - -
1777379743 46.67° C 14% 1010.5 hPa - - - -
1777379443 46.11° C 14% 1010.7 hPa - - - -
1777378543 44.44° C 14% 1010.8 hPa - - - -
1777378243 43.89° C 15% 1010.7 hPa - - - -

* Rain since midnight (hover to see other rain measurements)
** Current wind speed in m/s (hover to see current wind gust speed)